Погода в Итабораи

Бразилия     22°44′37″S   42°51′30″W
темп.,
°C
ветер,
м/с
пор.,
м/с
влажн.,
%
обл.,
%
осадки,
мм/ч
давл.,
гПа
погр.,
м
27 февраля, сб
сб2700:00+21ссв1399100 7.0 1015126
03:00+21св0197100 9.1 101427
06:00+21всв1194100 0.3 101427
09:00+23вюв1286100 0.3 1016329
12:00+28вюв2369100 0.0 1015870
15:00+28в2373100 1.1 1013887
18:00+25в2391100 1.4 101371
21:00+22в2296100 1.4 101547
28 февраля, вс
вс2800:00+21всв2297100 0.0 101572
03:00+21всв229799 0.0 101350
06:00+21св119698 0.0 101433
09:00+26всв127499 0.0 1015369
12:00+30в2258100 0.0 1015885
15:00+30в4565100 0.1 1013914
18:00+24в388898 0.3 1012387
21:00+22всв259296 0.4 1014192
1 марта, пн
пн100:00+21всв259282 0.0 1014138
03:00+20всв129564 0.0 101326
06:00+19св12945 0.0 101328
09:00+27ссв116910 0.0 1014362
12:00+31юв12535 0.0 10141128
15:00+31всв446139 0.1 10111227
18:00+26в378268 0.2 1011306
21:00+23всв249079 0.2 1014122
2 марта, вт
вт200:00+21всв229296 0.0 101450
03:00+20всв229362 0.0 101331
06:00+20св128390 0.0 101429
09:00+27св116574 0.0 1015330
12:00+32вюв125260 0.0 10141110
15:00+32в225646 0.0 10121165
18:00+26в247984 0.1 101291
21:00+24всв228692 0.1 101538
3 марта, ср
ср300:00+22св229059 0.0 101529
03:00+21св128449 0.0 101425
06:00+21св118283 0.0 101523
09:00+28ссз116591 0.0 1016298
12:00+32з135596 0.0 1015992
15:00+31юв235783 0.7 10141315
18:00+24зюз229284 5.2 101453
21:00+22зсз119793 7.9 101640